"2022-10-02 00:01:00",3138885,6.357333,229.2687,5.051102,0.5912638,7.31,0,5.203333,225.4001,4.376631,0.4250124,5.87,0,-999,0,12.93,85.2,12.99,13,0.2,0,0,13.61,13.2,0.2,101.4248,3.173,3.173,3.172,100,0,0,0,328.2,104.1,104
"2022-10-02 00:02:00",3138886,6.077333,222.5273,6.150452,0.8656362,7.84,0,4.346666,218.1358,5.13492,0.592775,5.18,0,-999,0,12.9,86.1,12.96,12.94,0.2,0,0,13.61,13.21,0.2,101.4243,3.174,3.174,3.173,100,0,0.06,0.057,328.3,104.1,104
"2022-10-02 00:03:00",3138887,6.082667,217.666,3.278774,0.6956289,6.79,0,4.304,215.2768,6.321188,0.2921141,4.7,0,-999,0,12.84,86.7,12.95,12.88,0.2,0,0,13.59,13.21,0.2,101.4281,3.176,3.176,3.174,100,0,0.03,0.031,328.3,104.1,104.1
"2022-10-02 00:04:00",3138888,5.396667,214.7318,4.403086,0.5085752,6.22,0,4.427333,213.4649,4.853656,0.4250876,5.12,0,-999,0,12.75,88,12.87,12.78,0.2,0,0,13.58,13.23,0.2,101.4286,3.178,3.178,3.177,100,0,0.02,0.023,328.4,104.1,104.1
"2022-10-02 00:05:00",3138889,5.112,214.9995,4.951881,0.4791828,6.32,0,4.188666,214.7352,6.219182,0.7160248,5.6,0,-999,0,12.7,88.1,12.8,12.74,0.2,0,0,13.56,13.23,0.2,101.4292,3.179,3.179,3.178,100,0,0.03,0.024,328.4,104.1,104.1
"2022-10-02 00:06:00",3138890,5.142667,212.7327,2.743572,0.3417693,5.58,0,3.854667,212.1459,5.204411,0.350844,4.37,0,-999,0,12.65,88.5,12.75,12.68,0.2,0,0,13.56,13.22,0.2,101.4333,3.181,3.181,3.18,100,0,0,0,328.4,104.1,104.1
"2022-10-02 00:07:00",3138891,5.663333,214.0676,4.724042,0.5783501,6.45,0,4.268,217.0008,4.924472,0.4840137,5.52,0,-999,0,12.6,88.7,12.69,12.63,0.2,0,0,13.54,13.24,0.2,101.4339,3.182,3.182,3.181,100,0,0,0,328.4,104.1,104.1
"2022-10-02 00:08:00",3138892,5.382666,219.4664,3.1165,0.3455134,5.99,0,4.462,218.0021,5.794375,0.559812,5.69,0,-999,0,12.52,88.7,12.63,12.57,0.2,0,0,13.54,13.22,0.2,101.4436,3.183,3.183,3.182,100,0,0,0,328.4,104.1,104.1
"2022-10-02 00:09:00",3138893,4.16,214.2682,4.595261,0.4011649,4.88,0,3.348,213.2666,4.248497,0.4072051,4.2,0,-999,0,12.45,89.6,12.55,12.47,0.2,0,0,13.52,13.22,0.2,101.4381,3.184,3.184,3.183,100,0,0,0,328.4,104.1,104.1
"2022-10-02 00:10:00",3138894,4.173999,214.2681,3.604095,0.194929,4.73,0,3.494,212.872,5.222499,0.4525454,4.15,0,-999,0,12.4,90.1,12.49,12.44,0.2,0,0,13.51,13.23,0.2,101.4313,3.186,3.186,3.185,100,0,0,0,328.4,104.1,104.1
"2022-10-02 00:11:00",3138895,4.818666,218.7997,4.606541,0.7750343,6.52,0,3.867333,217.2672,4.120724,0.7169609,5.25,0,-999,0,12.37,90.1,12.46,12.4,0.2,0,0,13.5,13.24,0.2,101.4375,3.188,3.188,3.186,100,0,0,0,328.4,104.1,104.1
"2022-10-02 00:12:00",3138896,4.402667,220.2675,5.502873,0.5347082,5.31,0,3.336667,222.0028,4.456236,0.7225664,5.29,0,-999,0,12.3,90,12.4,12.34,0.2,0,0,13.48,13.22,0.2,101.4456,3.19,3.19,3.188,100,0,0,0,328.4,104.1,104.1
"2022-10-02 00:13:00",3138897,3.92,212.9468,5.351582,0.4718898,4.81,0,2.825333,211.4747,6.157252,0.3439741,3.37,0,-999,0,12.2,90.7,12.31,12.22,0.2,0,0,13.46,13.22,0.2,101.4397,3.192,3.192,3.19,100,0,0,0,328.4,104.1,104.1
"2022-10-02 00:14:00",3138898,3.427334,222.0096,5.545529,0.5654787,4.65,0,2.733334,222.9322,4.007092,0.4861092,3.58,0,-999,0,12.2,90.5,12.32,12.26,0.2,0,0,13.44,13.24,0.2,101.4425,3.196,3.196,3.192,100,0,0,0,328.4,104.1,104.1
"2022-10-02 00:15:00",3138899,4.077333,226.6632,5.626804,0.4123988,4.72,0,2.977333,224.5349,4.208334,0.3702696,3.7,0,-999,0,12.18,90.3,12.26,12.21,0.2,0,0,13.42,13.23,0.2,101.4448,3.199,3.199,3.196,100,0,0,0,328.4,104.1,104.1
"2022-10-02 00:16:00",3138900,4.296,221.6648,4.09234,0.4558916,4.91,0,3.413333,218.6046,5.411002,0.3813251,4.22,0,-999,0,12.1,90.9,12.18,12.12,0.2,0,0,13.41,13.22,0.2,101.4465,3.201,3.201,3.199,100,0,0,0,328.4,104.1,104.1
"2022-10-02 00:17:00",3138901,4.218,220.6656,4.481743,0.5014805,5.13,0,3.161333,217.5988,4.713958,0.363444,4.17,0,-999,0,12.03,91.1,12.15,12.07,0.2,0,0,13.38,13.22,0.2,101.4496,3.204,3.204,3.201,100,0,0,0,328.4,104.1,104.1
"2022-10-02 00:18:00",3138902,4.114667,218.0658,3.129184,0.5433828,5.06,0,2.917333,218.5247,5.878435,0.3638766,3.37,0,-999,0,12,91.2,12.14,12.07,0.2,0,0,13.36,13.23,0.2,101.4517,3.206,3.206,3.204,100,0,0,0,328.4,104.1,104.1
"2022-10-02 00:19:00",3138903,4.721334,223.4053,5.157047,0.549301,5.48,0,3.792,221.6004,4.963272,0.457343,4.62,0,-999,0,12.02,90.7,12.14,12.09,0.2,0,0,13.34,13.23,0.2,101.4543,3.209,3.209,3.207,100,0,0,0,328.4,104.1,104.1
"2022-10-02 00:20:00",3138904,4.122667,220.2007,4.003096,0.3320134,4.73,0,3.208667,220.6005,3.072144,0.3659119,3.73,0,-999,0,12.07,90.6,12.14,12.09,0.2,0,0,13.32,13.22,0.2,101.4565,3.211,3.211,3.209,100,0,0,0,328.4,104.1,104.1
"2022-10-02 00:21:00",3138905,4.394667,221.6015,4.045767,0.3324227,4.99,0,3.136667,221.2661,4.201747,0.4828204,4.14,0,-999,0,12.01,90.7,12.09,12.06,0.2,0,0,13.3,13.24,0.2,101.4621,3.214,3.214,3.211,100,0,0,0,328.4,104.1,104.1
"2022-10-02 00:22:00",3138906,4.410667,222.5342,4.254989,0.4456077,5.26,0,3.806666,222.2637,8.336261,0.4156387,4.87,0,-999,0,12,90.7,12.09,12.06,0.2,0,0,13.28,13.21,0.2,101.4601,3.216,3.216,3.214,100,0,0,0,328.4,104.1,104.1
"2022-10-02 00:23:00",3138907,4.48,218.8677,4.542598,0.408852,5.02,0,3.512666,221.4622,5.826849,0.3846291,4.1,0,-999,0,12,90.7,12.08,12.07,0.2,0,0,13.25,13.22,0.2,101.4568,3.216,3.216,3.216,100,0,0,0,328.4,104.1,104.1
"2022-10-02 00:24:00",3138908,4.358666,218.7323,4.1688,0.4299437,5.17,0,3.266666,218.2662,4.327259,0.4206609,3.89,0,-999,0,11.99,90.8,12.05,12.03,0.2,0,0,13.23,13.23,0.2,101.4591,3.218,3.218,3.217,100,0,0,0,328.4,104.1,104.1
"2022-10-02 00:25:00",3138909,3.845333,218.666,5.270981,0.3922732,4.44,0,3.015333,218.0005,5.290557,0.3017696,3.51,0,-999,0,11.9,90.9,12.01,11.96,0.2,0,0,13.21,13.25,0.2,101.4605,3.22,3.22,3.218,100,0,0,0,328.4,104.1,104.1
"2022-10-02 00:26:00",3138910,3.964667,219.9198,5.998212,0.6029468,4.89,0,2.982,217.5991,5.288733,0.5858349,4.41,0,-999,0,11.98,90.5,12.06,12.02,0.2,0,0,13.19,13.23,0.2,101.4645,3.22,3.22,3.219,100,0,0,0,328.4,104.1,104.1
"2022-10-02 00:27:00",3138911,4.158667,217.7993,3.389171,0.460143,4.86,0,3.006667,216.0024,5.1749,0.5376203,4.33,0,-999,0,11.96,90.3,12.06,12.03,0.2,0,0,13.17,13.22,0.2,101.4656,3.221,3.221,3.22,100,0,0,0,328.4,104.1,104.1
"2022-10-02 00:28:00",3138912,3.947333,218.6702,5.824937,0.5663034,5.2,0,3.063334,219.4001,7.059074,0.5416724,4.07,0,-999,0,12.1,89.5,12.15,12.16,0.2,0,0,13.14,13.23,0.2,101.4647,3.222,3.222,3.221,100,0,0,0,328.4,104.1,104.1
"2022-10-02 00:29:00",3138913,3.845333,218.4703,4.269968,0.3953204,4.38,0,2.772667,216.8943,6.7319,0.4531146,3.57,0,-999,0,12.08,89.5,12.1,12.12,0.2,0,0,13.13,13.21,0.2,101.4619,3.221,3.222,3.221,100,0,0,0,328.4,104.1,104.1
"2022-10-02 00:30:00",3138914,3.866,216.1987,5.863521,0.5713702,4.91,0,2.825333,216.4642,6.647734,0.4181685,3.66,0,-999,0,12.07,89.5,12.12,12.1,0.2,0,0,13.1,13.22,0.2,101.4628,3.222,3.222,3.222,100,0,0,0,328.4,104.1,104.1
"2022-10-02 00:31:00",3138915,3.614667,217.7328,2.619104,0.234659,3.89,0,2.85,218.2003,3.409225,0.24,3.28,0,-999,0,12.09,89.4,12.12,12.1,0.2,0,0,13.08,13.22,0.2,101.4656,3.222,3.222,3.222,100,0,0,0,328.4,104.1,104.1
"2022-10-02 00:32:00",3138916,3.582667,218.9315,3.871626,0.4003576,4.33,0,2.710667,213.0686,5.320656,0.3139738,3.36,0,-999,0,12,89.4,12.08,12.04,0.2,0,0,13.06,13.24,0.2,101.4635,3.224,3.224,3.222,100,0,0,0,328.4,104.1,104.1
"2022-10-02 00:33:00",3138917,4.276667,211.7952,5.546684,0.6203189,5.19,0,3.327334,210.1494,6.250576,0.594917,4.46,0,-999,0,11.99,89.7,12.03,11.99,0.2,0,0,13.04,13.23,0.2,101.4641,3.224,3.224,3.222,100,0,0,0,328.4,104.1,104.1
"2022-10-02 00:34:00",3138918,4.249333,213.4679,5.070215,0.4655673,5.19,0,2.962,208.3418,5.075937,0.5007754,4.05,0,-999,0,11.91,89.8,12.01,11.94,0.2,0,0,13.02,13.23,0.2,101.4627,3.222,3.224,3.222,100,0,0,0,328.4,104.1,104.1
"2022-10-02 00:35:00",3138919,3.752,212.267,2.293681,0.1920139,4.11,0,2.812,208.5336,4.658636,0.3238559,3.49,0,-999,0,12,89.5,12.03,12,0.2,0,0,12.99,13.25,0.2,101.4582,3.222,3.223,3.222,100,0,0,0,328.4,104.1,104.1
"2022-10-02 00:36:00",3138920,3.688,213.2666,3.604804,0.4115693,4.41,0,2.872667,211.5332,5.276582,0.4537762,3.59,0,-999,0,12,89.5,12.06,12.03,0.2,0,0,12.97,13.24,0.2,101.4622,3.222,3.222,3.222,100,0,0,0,328.4,104.1,104.1
"2022-10-02 00:37:00",3138921,3.709333,211.732,2.998018,0.2753535,4.16,0,2.924,209.066,5.117257,0.3435268,3.67,0,-999,0,11.95,89.7,11.99,11.95,0.2,0,0,12.95,13.25,0.2,101.468,3.222,3.222,3.222,100,0,0,0,328.4,104.1,104.1
"2022-10-02 00:38:00",3138922,3.581333,209.4563,5.822991,0.3005077,4.14,0,2.432,204.0738,6.592633,0.2144513,2.85,0,-999,0,11.9,90.1,11.98,11.92,0.2,0,0,12.93,13.23,0.2,101.4659,3.221,3.222,3.221,100,0,0,0,328.4,104.1,104.1
"2022-10-02 00:39:00",3138923,3.499333,207.2677,3.659479,0.3141648,3.93,0,2.602,203.3966,5.769004,0.1923954,2.94,0,-999,0,11.9,90.2,11.97,11.91,0.2,0,0,12.91,13.24,0.2,101.4604,3.22,3.221,3.22,100,0,0,0,328.4,104.1,104.1
"2022-10-02 00:40:00",3138924,3.664667,208.7989,3.832488,0.273517,4.01,0,2.609333,203.5237,5.322932,0.3299387,3.12,0,-999,0,11.9,90.1,11.98,11.93,0.2,0,0,12.89,13.22,0.2,101.4607,3.218,3.22,3.218,100,0,0,0,328.4,104.1,104.1
"2022-10-02 00:41:00",3138925,3.838667,207.8664,2.777438,0.3877605,4.29,0,2.688667,204.735,4.737718,0.4112236,3.57,0,-999,0,11.9,90,11.99,11.95,0.2,0,0,12.86,13.23,0.2,101.4632,3.217,3.219,3.216,100,0,0,0,328.4,104.1,104.1
"2022-10-02 00:42:00",3138926,3.478667,205.8009,3.102344,0.2946153,3.93,0,2.616,201.666,3.663204,0.2425091,3.1,0,-999,0,11.9,90.2,11.96,11.93,0.2,0,0,12.86,13.23,0.2,101.4595,3.216,3.217,3.216,100,0,0,0,328.4,104.1,104.1
"2022-10-02 00:43:00",3138927,3.729333,208.8005,3.63597,0.3024669,4.42,0,2.520667,206.9302,5.835709,0.3309676,3.24,0,-999,0,11.89,90.5,11.91,11.88,0.2,0,0,12.83,13.26,0.2,101.4585,3.214,3.216,3.214,100,0,0,0,328.4,104.1,104.1
"2022-10-02 00:44:00",3138928,4.140666,213.2062,5.084557,0.5546706,5.37,0,2.979333,216.1455,8.22059,0.4601516,3.76,0,-999,0,11.9,90.5,11.98,11.93,0.2,0,0,12.81,13.22,0.2,101.4615,3.211,3.214,3.211,100,0,0,0,328.4,104.1,104.1
"2022-10-02 00:45:00",3138929,4.039999,213.6004,4.157736,0.3308373,4.55,0,2.875333,214.9292,6.471495,0.5243137,3.92,0,-999,0,11.9,90.8,11.99,11.93,0.2,0,0,12.8,13.23,0.2,101.4628,3.208,3.211,3.208,100,0,0,0,328.4,104.1,104.1
"2022-10-02 00:46:00",3138930,3.409333,210.7996,4.548306,0.2106962,3.86,0,2.547333,214.3393,6.346661,0.2585979,3.05,0,-999,0,11.9,91.1,12,11.95,0.2,0,0,12.77,13.25,0.2,101.4659,3.206,3.209,3.206,100,0,0,0,328.4,104.1,104.1
"2022-10-02 00:47:00",3138931,3.504667,207.2666,3.836942,0.4095178,4.21,0,2.394,206.7329,3.695659,0.2110229,2.87,0,-999,0,11.9,91.1,11.99,11.94,0.2,0,0,12.77,13.23,0.2,101.4627,3.204,3.205,3.204,100,0,0,0,328.4,104.1,104.1
"2022-10-02 00:48:00",3138932,3.940666,208.6683,4.450653,0.2434602,4.33,0,2.7,205.4087,6.812929,0.4455858,3.48,0,-999,0,11.91,91.1,12.01,11.95,0.2,0,0,12.75,13.24,0.2,101.4635,3.201,3.204,3.201,100,0,0,0,328.4,104.1,104.1
"2022-10-02 00:49:00",3138933,3.796667,205.6655,4.298719,0.3592894,4.64,0,3.024667,208.3327,5.685086,0.3525311,3.69,0,-999,0,11.99,91.1,12.09,12.04,0.2,0,0,12.73,13.24,0.2,101.4591,3.199,3.201,3.199,100,0,0,0,328.4,104.1,104.1
"2022-10-02 00:50:00",3138934,3.815333,206.2021,3.984487,0.4247331,4.62,0,2.556,204.5979,4.715126,0.2553898,3.11,0,-999,0,12.07,91,12.18,12.17,0.2,0,0,12.72,13.23,0.2,101.4572,3.195,3.199,3.195,100,0,0,0,328.4,104.1,104.1
"2022-10-02 00:51:00",3138935,3.880666,207.9323,4.154049,0.3982038,4.69,0,2.704,205.4064,5.32395,0.383037,3.58,0,-999,0,12.1,91,12.21,12.21,0.2,0,0,12.71,13.23,0.2,101.4607,3.191,3.195,3.191,100,0,0,0,328.4,104.1,104.1
"2022-10-02 00:52:00",3138936,3.86,208.5345,5.135111,0.3943771,4.45,0,2.652,211.4411,7.955712,0.4016002,3.49,0,-999,0,12.1,91.3,12.2,12.17,0.2,0,0,12.7,13.25,0.2,101.4613,3.188,3.191,3.188,100,0,0,0,328.4,104.1,104.1
"2022-10-02 00:53:00",3138937,4.243333,211.339,5.195647,0.4015746,4.89,0,3.114666,210.8181,6.87452,0.3161828,3.63,0,-999,0,12.1,91.5,12.23,12.18,0.2,0,0,12.68,13.24,0.2,101.464,3.184,3.187,3.184,100,0,0,0,328.4,104.1,104.1
"2022-10-02 00:54:00",3138938,4.305333,210.7384,6.253229,0.7115697,6.2,0,3.308,211.6071,5.080123,0.3561124,3.87,0,-999,0,12.17,91.7,12.33,12.27,0.2,0,0,12.67,13.23,0.2,101.4681,3.18,3.184,3.18,100,0,0,0,328.4,104.1,104.1
"2022-10-02 00:55:00",3138939,4.397333,212.3395,5.54242,0.2962536,5.11,0,3.244,212.9999,4.13027,0.3662931,4.11,0,-999,0,12.3,91.7,12.4,12.35,0.2,0,0,12.67,13.24,0.2,101.4673,3.176,3.18,3.176,100,0,0,0,328.4,104.1,104.1
"2022-10-02 00:56:00",3138940,4.475333,213.2663,4.95883,0.3756393,5.14,0,2.904667,212.9355,5.232103,0.2985491,3.5,0,-999,0,12.3,92,12.4,12.35,0.2,0,0,12.67,13.21,0.2,101.4643,3.171,3.176,3.171,100,0,0,0,328.4,104.1,104.1
"2022-10-02 00:57:00",3138941,4.19,211.7971,4.953471,0.4478839,4.78,0,2.919334,210.9406,6.563807,0.334175,3.49,0,-999,0,12.31,92.1,12.45,12.38,0.2,0,0,12.67,13.23,0.2,101.4707,3.166,3.17,3.166,100,0,0,0,328.4,104.1,104.1
"2022-10-02 00:58:00",3138942,4.127334,213.0662,3.767193,0.4600647,4.92,0,3.259333,215.8784,6.021847,0.4672968,3.81,0,-999,0,12.36,92.3,12.49,12.41,0.2,0,0,12.66,13.22,0.2,101.4662,3.162,3.166,3.162,100,0,0,0,328.4,104.1,104.1
"2022-10-02 00:59:00",3138943,4.381333,212.9343,3.491272,0.6973842,5.47,0,3.284,211.2702,6.854146,0.6965132,4.93,0,-999,0,12.4,92,12.53,12.51,0.2,0,0,12.66,13.22,0.2,101.4683,3.158,3.162,3.158,100,0,0,0,328.4,104.1,104.1
"2022-10-02 01:00:00",3138944,4.588667,213.6014,3.15735,0.7010645,6.08,0,3.144667,210.9448,5.391821,0.3766672,4.13,0,-999,0,12.4,92.4,12.53,12.49,0.2,0,0,12.66,13.22,0.2,101.4775,3.152,3.157,3.152,100,0,0,0,328.4,104.1,104.1
"2022-10-02 01:01:00",3138945,4.424667,215.2683,2.766762,0.3232928,5.1,0,3.358,211.6679,3.626025,0.4723869,4.59,0,-999,0,12.41,92.6,12.55,12.5,0.2,0,0,12.67,13.23,0.2,101.4709,3.147,3.151,3.147,100,0,0,0,328.4,104.1,104.1
"2022-10-02 01:02:00",3138946,4.467333,211.2006,4.197584,0.6691533,5.89,0,2.996667,213.2023,6.22838,0.4494837,3.97,0,-999,0,12.48,92.7,12.57,12.52,0.2,0,0,12.67,13.23,0.2,101.4742,3.142,3.147,3.142,100,0,0,0,328.4,104.1,104.1
"2022-10-02 01:03:00",3138947,3.924667,212.7364,6.80308,0.2676782,4.51,0,2.751333,211.5988,7.008069,0.5583175,4.26,0,-999,0,12.5,92.7,12.62,12.55,0.2,0,0,12.67,13.23,0.2,101.4711,3.136,3.142,3.136,100,0,0,0,328.4,104.1,104.1
"2022-10-02 01:04:00",3138948,3.927333,215.9355,4.342059,0.3383581,4.65,0,2.879333,214.7406,5.966324,0.4122535,3.44,0,-999,0,12.52,92.9,12.65,12.58,0.2,0,0,12.67,13.24,0.2,101.4786,3.132,3.136,3.132,100,0,0,0,328.4,104.1,104.1
"2022-10-02 01:05:00",3138949,3.806667,217.7355,3.973482,0.4053092,4.39,0,3.116667,215.8022,4.591302,0.3961762,3.8,0,-999,0,12.6,92.8,12.68,12.64,0.2,0,0,12.67,13.24,0.2,101.4804,3.129,3.132,3.129,100,0,0,0,328.4,104.1,104.1
"2022-10-02 01:06:00",3138950,4.298,217.5424,5.825665,0.5792086,5.04,0,3.116667,212.0072,7.353472,0.4948625,4.08,0,-999,0,12.59,92.9,12.64,12.58,0.2,0,0,12.67,13.23,0.2,101.4828,3.125,3.128,3.125,100,0,0,0,328.4,104.1,104.1
"2022-10-02 01:07:00",3138951,4.300001,212.787,5.799477,0.3135602,4.86,0,3.446667,212.067,3.922958,0.3865517,3.98,0,-999,0,12.59,93.1,12.65,12.59,0.2,0,0,12.68,13.23,0.2,101.482,3.122,3.125,3.122,100,0,0,0,328.4,104.1,104.1
"2022-10-02 01:08:00",3138952,4.535333,213.8745,4.449152,0.4800536,5.27,0,3.366,209.7955,7.677107,0.394813,4,0,-999,0,12.6,93,12.72,12.67,0.2,0,0,12.7,13.23,0.2,101.4789,3.117,3.121,3.117,100,0,0,0,328.4,104.1,104.1
"2022-10-02 01:09:00",3138953,3.946667,216.0557,6.118554,0.4075728,4.59,0,3.06,213.4577,6.080767,0.3967031,3.67,0,-999,0,12.66,92.8,12.76,12.71,0.2,0,0,12.7,13.25,0.2,101.4755,3.115,3.117,3.115,100,0,0,0,328.4,104.1,104.1
"2022-10-02 01:10:00",3138954,4.726667,216.1366,5.468775,0.7770944,6.44,0,3.219333,215.07,7.519278,0.4462207,3.85,0,-999,0,12.72,92.5,12.83,12.81,0.2,0,0,12.72,13.25,0.2,101.4775,3.111,3.115,3.111,100,0,0,0,328.4,104.1,104.1
"2022-10-02 01:11:00",3138955,5.256,212.4026,4.142165,0.8523051,6.76,0,3.969334,210.099,7.26129,0.5637903,5.13,0,-999,0,12.8,92.3,12.85,12.86,0.2,0,0,12.72,13.23,0.2,101.4735,3.108,3.111,3.108,100,0,0,0,328.4,104.1,104.1
"2022-10-02 01:12:00",3138956,5.138,212.9465,7.117877,0.6827318,6.73,0,4.013333,211.6184,8.400285,0.5553218,4.92,0,-999,0,12.85,92.3,12.92,12.91,0.2,0,0,12.72,13.23,0.2,101.4713,3.103,3.108,3.103,100,0,0,0,328.4,104.1,104.1
"2022-10-02 01:13:00",3138957,4.957334,216.4001,5.247114,0.4530705,5.89,0,3.869334,214.6609,4.82284,0.5229591,4.89,0,-999,0,12.91,92.1,12.99,12.99,0.2,0,0,12.74,13.22,0.2,101.4679,3.099,3.103,3.099,100,0,0,0,328.4,104.1,104.1
"2022-10-02 01:14:00",3138958,4.152,211.9351,4.594662,0.5407057,5.35,0,3.435333,210.8015,4.721252,0.2962176,4.18,0,-999,0,12.91,92.4,12.93,12.92,0.2,0,0,12.75,13.22,0.2,101.4674,3.097,3.099,3.097,100,0,0,0,328.4,104.1,104.1
"2022-10-02 01:15:00",3138959,4.703333,214.7315,4.357102,0.398893,5.29,0,3.630666,212.061,7.172786,0.468337,4.51,0,-999,0,12.9,92.4,12.95,12.92,0.2,0,0,12.77,13.23,0.2,101.4716,3.094,3.097,3.094,100,0,0,0,328.4,104.1,104.1
"2022-10-02 01:16:00",3138960,4.958666,211.4026,3.80736,0.6228629,5.81,0,3.652,212.2773,7.213409,0.4062052,4.3,0,-999,0,12.9,92.2,12.94,12.93,0.2,0,0,12.77,13.23,0.2,101.4697,3.091,3.094,3.091,100,0,0,0,328.4,104.1,104.1
"2022-10-02 01:17:00",3138961,4.687334,216.0659,3.510326,0.657353,5.62,0,3.796,210.8703,5.886213,0.4689251,4.69,0,-999,0,12.95,92.1,13.01,13,0.2,0,0,12.78,13.23,0.2,101.4721,3.088,3.091,3.088,100,0,0,0,328.4,104.1,104.1
"2022-10-02 01:18:00",3138962,4.820667,210.7582,9.33062,0.5347955,5.69,0,3.401333,208.8035,7.796377,0.6081651,4.5,0,-999,0,13,92.2,13.02,13.02,0.2,0,0,12.79,13.22,0.2,101.4694,3.086,3.088,3.086,100,0,0,0,328.4,104.1,104.1
"2022-10-02 01:19:00",3138963,4.938,212.0051,5.096716,0.5737153,5.94,0,3.98,208.3447,7.693824,0.419301,4.64,0,-999,0,13,92.1,13.07,13.06,0.2,0,0.254,12.8,13.23,0.2,101.4734,3.081,3.086,3.081,100,0,0,0,328.4,104.1,104.1
"2022-10-02 01:20:00",3138964,5.134666,213.334,5.066934,0.4773799,5.73,0,3.864666,214.2713,6.575329,0.5246696,4.83,0,-999,0,13,92.1,13.04,13.03,0.2,0,0,12.81,13.23,0.2,101.4688,3.08,3.081,3.08,100,0,0,0,328.4,104.1,104.1
"2022-10-02 01:21:00",3138965,4.421333,209.0678,5.284058,0.4516764,5.18,0,3.203333,208.2191,6.573751,0.3998444,4.08,0,-999,0,12.95,92.3,12.99,12.97,0.2,0,0,12.83,13.23,0.2,101.4751,3.079,3.081,3.079,100,0,0,0,328.4,104.1,104.1
"2022-10-02 01:22:00",3138966,4.167333,214.4672,3.99669,0.2547801,4.65,0,3.092667,211.0009,4.257388,0.5667623,4.18,0,-999,0,12.9,92.6,12.96,12.92,0.2,0,0,12.84,13.23,0.2,101.4689,3.077,3.079,3.077,100,0,0,0,328.4,104.1,104.1
"2022-10-02 01:23:00",3138967,3.468,214.4072,6.424498,0.3240206,3.99,0,2.628,214.467,4.963986,0.2944418,3.3,0,-999,0,12.9,92.7,12.94,12.88,0.2,0,0,12.86,13.23,0.2,101.4711,3.075,3.077,3.075,100,0,0,0,328.4,104.1,104.1
"2022-10-02 01:24:00",3138968,4.283333,213.0057,5.262645,0.4018236,5.04,0,3.261334,215.941,7.071779,0.4037799,4.45,0,-999,0,12.89,92.9,12.99,12.92,0.2,0,0,12.86,13.23,0.2,101.4669,3.075,3.075,3.075,100,0,0,0,328.4,104.1,104.1
"2022-10-02 01:25:00",3138969,4.720667,211.1625,8.665938,0.9170567,6.13,0,3.525333,211.8721,6.577642,0.8853765,5.17,0,-999,0,12.91,92.9,13.02,12.97,0.2,0,0,12.86,13.22,0.2,101.4609,3.073,3.075,3.073,100,0,0,0,328.4,104.1,104.1
"2022-10-02 01:26:00",3138970,4.854001,212.797,5.354269,0.3698252,5.63,0,3.892667,209.0729,5.659372,0.4180506,4.61,0,-999,0,13.01,92.7,13.12,13.08,0.2,0,0,12.88,13.22,0.2,101.4675,3.073,3.073,3.073,100,0,0,0,328.4,104.1,104.1
"2022-10-02 01:27:00",3138971,4.107333,214.9298,6.803256,0.6823828,5.42,0,3.37,216.7616,7.63538,0.4498,4.22,0,-999,0,13.06,92.9,13.14,13.12,0.2,0,0,12.89,13.22,0.2,101.4701,3.071,3.073,3.071,100,0,0,0,328.4,104.1,104.1
"2022-10-02 01:28:00",3138972,4.868667,215.0668,2.999097,0.4769467,5.64,0,4.159334,213.9352,4.890478,0.6348697,4.99,0,-999,0,13.1,92.9,13.15,13.16,0.2,0,0,12.91,13.22,0.2,101.4704,3.069,3.071,3.069,100,0,0,0,328.4,104.1,104.1
"2022-10-02 01:29:00",3138973,4.955333,218.8053,6.849556,0.573758,6.08,0,3.878667,217.6654,4.961369,0.8804534,5.76,0,-999,0,13.11,92.9,13.19,13.17,0.2,0,0,12.92,13.23,0.2,101.4747,3.069,3.069,3.069,100,0,0,0,328.4,104.1,104.1
"2022-10-02 01:30:00",3138974,4.444,216.3957,4.540672,0.3887381,5.1,0,3.287334,213.0042,5.199587,0.4442292,3.99,0,-999,0,13.2,92.6,13.23,13.23,0.2,0,0,12.94,13.22,0.2,101.473,3.067,3.069,3.067,100,0,0,0,328.4,104.1,104.1
"2022-10-02 01:31:00",3138975,4.500667,215.4667,2.629334,0.3340153,5.16,0,3.627333,215.9198,5.851132,0.4865452,4.44,0,-999,0,13.16,92.9,13.22,13.18,0.2,0,0,12.95,13.23,0.2,101.4723,3.065,3.067,3.065,100,0,0,0,328.4,104.1,104.1
"2022-10-02 01:32:00",3138976,4.284667,221.9353,8.303795,0.5810894,5.18,0,3.282666,214.4771,9.15687,0.7079027,4.62,0,-999,0,13.17,92.9,13.23,13.17,0.2,0,0,12.97,13.23,0.2,101.4755,3.065,3.065,3.065,100,0,0,0,328.4,104.1,104.1
"2022-10-02 01:33:00",3138977,4.058667,212.8738,5.779623,0.8315436,5.68,0,2.696667,209.3112,9.201171,0.2324555,3.3,0,-999,0,13.2,93,13.23,13.18,0.2,0,0,12.99,13.23,0.2,101.4758,3.063,3.065,3.063,100,0,0,0,328.4,104.1,104.1
"2022-10-02 01:34:00",3138978,3.822667,219.3844,8.121919,0.501391,4.62,0,2.972667,215.7968,5.046035,0.3920964,3.88,0,-999,0,13.2,92.7,13.25,13.24,0.2,0,0,13.01,13.24,0.2,101.4781,3.062,3.063,3.062,100,0,0,0,328.4,104.1,104.1
"2022-10-02 01:35:00",3138979,3.436,220.1995,3.310326,0.2474079,3.83,0,2.53,220.1961,4.164981,0.3215794,3.01,0,-999,0,13.2,92.6,13.27,13.27,0.2,0,0,13.02,13.23,0.2,101.4783,3.062,3.062,3.061,100,0,0,0,328.4,104.1,104.1
"2022-10-02 01:36:00",3138980,3.881333,220.8638,4.468876,0.3651277,4.78,0,2.882,220.5957,5.768731,0.2521428,3.47,0,-999,0,13.2,92.6,13.28,13.28,0.2,0,0,13.04,13.22,0.2,101.4837,3.061,3.062,3.061,100,0,0,0,328.4,104.1,104.1
"2022-10-02 01:37:00",3138981,2.868667,230.7392,5.369859,0.3937659,3.72,0,2.093333,227.8671,3.666791,0.366145,2.82,0,-999,0,13.2,93,13.27,13.27,0.2,0,0,13.06,13.23,0.2,101.4863,3.061,3.062,3.061,100,0,0,0,328.4,104.1,104.1
"2022-10-02 01:38:00",3138982,2.907333,230.4281,11.93334,0.3392632,3.87,0,2.201333,236.7455,9.553649,0.3581595,3.05,0,-999,0,13.2,93,13.3,13.28,0.2,0,0,13.08,13.23,0.2,101.495,3.062,3.062,3.061,100,0,0,0,328.4,104.1,104.1
"2022-10-02 01:39:00",3138983,3.407333,250.3183,10.1732,0.6374894,4.42,0,2.693333,250.1948,11.47163,0.5984387,3.52,0,-999,0,13.2,93.2,13.3,13.28,0.2,0,0,13.09,13.23,0.2,101.5025,3.061,3.062,3.061,100,0,0,0,328.4,104.1,104.1
"2022-10-02 01:40:00",3138984,2.990667,252.2675,4.710348,0.4237997,3.59,0,2.186666,255.9801,9.431787,0.3760436,3.17,0,-999,0,13.2,93,13.3,13.29,0.2,0,0,13.11,13.23,0.2,101.4962,3.061,3.062,3.06,100,0,0,0,328.4,104.2,104.1
"2022-10-02 01:41:00",3138985,2.605333,252.0451,9.826693,0.2627513,3.06,0,1.837333,249.9063,8.675623,0.3000104,2.42,0,-999,0,13.2,93.2,13.3,13.29,0.2,0,0,13.14,13.23,0.2,101.495,3.062,3.062,3.061,100,0,0,0,328.4,104.2,104.1
"2022-10-02 01:42:00",3138986,2.216,243.9206,10.02293,0.5214313,3.19,0,1.675333,244.8247,14.27945,0.3096637,2.38,0,-999,0,13.2,93.1,13.31,13.32,0.2,0,0,13.14,13.23,0.2,101.4967,3.062,3.062,3.062,100,0.138,0.02,0,328.4,104.3,104.1
"2022-10-02 01:43:00",3138987,2.371333,249.4125,17.29973,0.3811188,3.05,0,1.49,244.0659,17.69035,0.3212683,2.27,0,-999,0,13.2,93.1,13.3,13.29,0.2,0,0,13.16,13.23,0.2,101.4939,3.063,3.063,3.062,100,0.19,0.15,0,328.4,104.5,104.1
"2022-10-02 01:44:00",3138988,2.522667,226.8044,7.003295,0.3924193,3.47,0,1.993333,227.4982,10.27022,0.4854506,2.91,0,-999,0,13.2,93.5,13.3,13.27,0.2,0,0,13.18,13.23,0.2,101.4924,3.063,3.063,3.062,100,0.126,0.17,0,328.4,104.6,104.1
"2022-10-02 01:45:00",3138989,2.252667,215.136,9.943945,0.321962,3.01,0,1.762,216.3462,10.88958,0.2343274,2.19,0,-999,0,13.2,93.4,13.3,13.25,0.2,0,0.254,13.2,13.23,0.2,101.4941,3.065,3.065,3.063,100,0.105,0.07,0.068,328.4,104.8,104.2
"2022-10-02 01:46:00",3138990,3.384,232.9829,8.685892,0.5683402,4.12,0,2.826,233.1324,5.121851,0.7715162,4.11,0,-999,0,13.19,93.6,13.29,13.23,0.2,0,0,13.22,13.24,0.2,101.4933,3.065,3.065,3.065,100,0,0,0.052,328.5,104.8,104.2